www.pogodaiklimat.ru

Погода и климат >> Архив погоды >> Узбекистан >> Кунград


ПОГОДА в Кунграде

  • Прогноз погоды в Кунграде
  • Монитор погоды в Кунграде

АРХИВ ПОГОДЫ в Кунграде

Время (UTC), дата Ветер
(напр.,м/с)
 
Видим.   Явления Облачность Т
(С)
Тd
(С)
f
(%)
Тe
(С)
Тes
(С)
Комфортность P
(гПа)
Po
(гПа)
Тmin
(С)
Tmax
(С)
R
(мм)
R24
(мм)
S
(см)
18 16.09 Ю 4 20 км ясно +18.4 +7.6 49 +19 +19 1018.3 1011.0 +29.9
21 16.09 Ю 3 20 км ясно +15.2 +6.5 56 +15 +15 1018.8 1011.4
00 17.09 Ю 1 20 км ясно +13.4 +7.6 68 +14 +14 1018.0 1010.6
03 17.09 ЮВ 2 20 км ясно +12.6 +6.8 68 +12 +13 1017.4 1010.0
06 17.09 Ю 4 20 км ясно +24.5 +14.2 53 +27 +33 жарко 1017.6 1010.4 +10.4
09 17.09 ЮВ 6 20 км ясно +29.5 +13.9 38 +31 +36 жарко 1015.5 1008.4
12 17.09 ЮВ 5 20 км 5/5 1000 м
[Cu med, cong]
+28.9 +12.6 37 +30 +31 жарко 1013.9 1006.8
15 17.09 В 3 20 км 3/0
[Ci sp]
+23.8 +7.1 34 +24 +24 комфорт 1013.1 1005.9 +30.7
18 17.09 В 3 200 м ясно +19.6 +7.0 44 +21 +21 комфорт 1013.4 1006.1 +30.7
21 17.09 В 4 20 км ясно +18.4 +3.4 37 +18 +18 1011.5 1004.3
00 18.09 ЮВ 4 20 км ясно +15.2 +5.0 51 +14 +14 1009.4 1002.0
03 18.09 ЮВ 4 20 км ясно +14.2 +5.3 55 +13 +14 1009.0 1001.6
06 18.09 Ю 7 20 км ясно +25.7 +3.8 24 +25 +27 комфорт 1008.8 1001.7 +12.5
09 18.09 ЮЗ 7 20 км 3/3 1000 м
[Cu hum]
+32.0 +10.3 26 +32 +34 жарко 1008.3 1001.4
12 18.09 З 6 20 км ясно +30.8 +9.5 27 +30 +32 жарко 1008.8 1001.8
15 18.09 З 4 20 км ясно +23.4 +9.4 41 +25 +25 комфорт 1011.9 1004.2 +32.6
18 18.09 СЗ 4 20 км ясно +20.5 +9.4 49 +22 +22 комфорт 1011.3 1006.6 +32.6
21 18.09 З 1 20 км ясно +16.7 +9.0 60 +18 +18 1014.6 1007.3
00 19.09 З 1 20 км ясно +15.3 +9.5 68 +16 +16 1015.4 1008.0
03 19.09 З 1 20 км ясно +14.6 +9.8 73 +15 +16 1016.6 1009.2
06 19.09 Ю 1 20 км ясно +26.0 +9.8 36 +27 +37 жарко 1018.1 1010.9 +13.6
09 19.09 З 3 20 км ясно +30.2 +8.6 26 +30 +39 жарко 1017.7 1010.6
12 19.09 В 2 20 км ясно +30.0 +11.7 32 +31 +34 жарко 1016.4 1009.3
15 19.09 Ю 2 20 км ясно +24.7 +11.7 44 +26 +26 жарко 1015.7 1008.5 +30.4
18 19.09 Ю 1 20 км ясно +20.3 +11.0 55 +23 +23 комфорт 1016.7 1009.4 +30.4
21 19.09 Ю 2 20 км ясно +16.9 +10.3 65 +17 +17 1017.3 1010.0
00 20.09 СВ 1 20 км ясно +15.2 +9.7 70 +16 +16 1016.4 1009.0
03 20.09 штиль 0 20 км ясно +14.5 +9.7 73 +14 +15 1017.4 1010.0
06 20.09 ЮВ 3 20 км ясно +27.1 +11.7 38 +28 +35 жарко 1017.1 1010.0 +12.5
09 20.09 ЮВ 3 20 км ясно +31.4 +9.8 26 +31 +40 жарко 1015.6 1008.6
12 20.09 Ю 3 20 км ясно +31.6 +7.6 22 +30 +33 жарко 1014.1 1007.1
15 20.09 ЮВ 2 20 км ясно +25.0 +12.3 45 +27 +27 жарко 1013.9 1006.7 +32.7
18 20.09 В 4 20 км ясно +22.0 +9.2 44 +23 +23 комфорт 1014.7 1007.5 +32.7
21 20.09 В 4 20 км ясно +19.6 +7.3 45 +20 +20 1013.8 1006.5
00 21.09 В 2 20 км ясно +17.0 +7.3 53 +17 +17 1011.1 1003.9
03 21.09 В 3 20 км ясно +17.4 +6.2 48 +17 +18 1011.3 1004.1
06 21.09 ЮВ 6 20 км ясно +28.6 +13.5 39 +30 +34 жарко 1009.6 1002.8 +15.1
09 21.09 Ю 7 20 км ясно +32.6 +15.1 35 +35 +38 душно 1006.7 999.8
12 21.09 ЮВ 5 20 км ясно +32.5 +12.1 29 +33 +34 жарко 1004.6 997.7
15 21.09 штиль 0 20 км ясно +25.0 +9.3 37 +26 +26 жарко 1004.7 997.6 +34.0
18 21.09 ЮВ 3 20 км ясно +20.4 +9.5 50 +22 +22 комфорт 1004.0 996.8 +34.0
21 21.09 ЮВ 3 20 км ясно +17.8 +9.2 57 +18 +18 1002.5 995.3
00 22.09 СЗ 7 20 км 6/0
[Ci sp]
+18.4 +2.9 36 +18 +18 1004.3 997.1
03 22.09 СЗ 15 20 км 8/4 600 м
[Cb cap Ci sp]
+15.4 +6.4 55 +13 +13 1008.8 1001.4
06 22.09 СЗ 15 20 км 10/10 600 м
[Cb cap]
+15.0 +6.8 58 +12 +12 1013.6 1006.2 +15.2
09 22.09 СЗ 15 20 км 6/3 600 м
[Cb cap Ci sp]
+17.0 +7.0 52 +15 +15 1015.2 1007.9
12 22.09 СЗ 10 20 км 3/0
[Ci sp]
+19.0 +4.5 38 +18 +18 1017.7 1010.4
15 22.09 З 1 20 км ясно +13.3 +3.8 53 +14 +14 1019.7 1012.3 +20.4
18 22.09 ЮЗ 2 20 км ясно +10.4 +3.6 63 +9 +9 1021.7 1014.1 +20.4
21 22.09 штиль 0 20 км ясно +9.2 +3.8 69 +9 +9 1022.8 1015.2
00 23.09 штиль 0 20 км ясно +7.4 +3.0 74 +7 +7 1022.8 1015.2
03 23.09 Ю 1 20 км ясно +7.7 +2.1 68 +7 +8 1019.6 1016.4
06 23.09 Ю 2 20 км ясно +18.0 +2.5 35 +19 +27 1024.5 1017.1 +5.8
09 23.09 Ю 4 20 км ясно +21.8 +2.5 28 +22 +29 комфорт 1022.3 1017.1
12 23.09 Ю 2 20 км ясно +22.4 +1.9 26 +22 +25 комфорт 1020.1 1012.9
15 23.09 ЮВ 3 20 км ясно +17.1 +6.4 49 +17 +17 1018.6 1011.3 +23.2

 

Местоположение метеостанции Кунград (Каракалпакстан, Узбекистан): широта 43.08 долгота 58.93 высота над уровнем моря 64 м.

В архиве по умолчанию представлена погода в Кунграде за последнюю неделю. Архивные данные за месяц целиком и за предыдущие месяцы, начиная с января 2011 года, Вы можете получить, выбрав интересующий диапазон дат из раскрывающегося списка и нажав кнопку "Ввод!".


*Определитесь, кто Вы:
робот инопланетянин человек

Внимание! Время в таблицах - всемирное. Для получения местного времени необходимо прибавить поправку, которая равна 5 ч.

Смотрите также архив погоды в соседних городах и на ближайших метеорологических станциях:

Погода в Чимбае (Каракалпакстан, Узбекистан) (74 км)
Погода в Муйнаке (Каракалпакстан, Узбекистан) (76 км)
Погода в Тахтакупыре (Каракалпакстан, Узбекистан) (87 км)
Погода в Кенеургенче (Дашогузский велаят, Туркменистан) (88 км)
Погода в Нукусе (Каракалпакстан, Узбекистан) (90 км)
Погода в Тахиаташе (Каракалпакстан, Узбекистан) (93 км)
Погода в Жаслыке (Каракалпакстан, Узбекистан) (144 км)
Погода в Дашогузе (Дашогузский велаят, Туркменистан) (165 км)
Погода в Шах-Сенеме (Дашогузский велаят, Туркменистан) (168 км)
Погода в Гурлене (Хорезмская область, Узбекистан) (182 км)

Пояснения к столбцам:

Ветер - указаны скорость ветра в м/с - средняя за 10 мин, порывы в срок и между сроками (в фигурных скобках) и направление, откуда дует ветер: С - северный, СВ - северо-восточный, В - восточный, ЮВ - юго-восточный, Ю - южный, ЮЗ - юго-западный, З - западный, СЗ - северо-западный.
Видимость - горизонтальная дальность видимости в метрах или километрах. При видимости от 1 до 10 км при отсутствии осадков обычно наблюдается дымка, при ухудшении видимости до 1 км и менее - туман. В сухую погоду видимость может ухудшаться дымом, пылью или мглою.
Явления - указаны атмосферные явления, наблюдавшиеся в срок или в последний час перед сроком; фигурными скобками обозначены явления, наблюдавшиеся между сроками (за 1-3 часа до срока); квадратными скобками обозначены град или гололедные отложения с указанием их диаметра в мм.
Облачность - указаны через наклонную черту общая и нижняя облачность в баллах и высота нижней границы облаков в метрах; квадратными скобками обозначены формы облаков: Ci - перистые, Cs - перисто-слоистые, Cc - перисто-кучевые, Ac - высококучевые, As - высокослоистые, Sc - слоисто-кучевые, Ns - слоисто-дождевые, Cu - кучевые, Cb - кучево-дождевые. Подробнее классификацию облаков см. в Атласе облаков (PDF).
T - Температура воздуха - температура, измеренная на высоте 2 м над землей.
Td - Температура точки росы - температура, при понижении до которой содержащийся в воздухе водяной пар достигнет насыщения.
f - Относительная влажность воздуха - влажноcть воздуха, измеренная на высоте 2 м над землей.
Te - Эффективная температура - температура, которую ощущает одетый по сезону человек в тени. Характеристика душности погоды. При расчете учитывается влияние влажности воздуха и скорости ветра на теплоощущения человека.
Tes - Эффективная температура на солнце - температура, которую ощущает человек, с поправкой на солнечный нагрев. Характеристика знойности погоды. Зависит от высоты солнца над горизонтом, облачности и скорости ветра. Ночью, в пасмурную погоду, а также при ветре 12 м/с и более поправка равна нулю.
P - Атмосферное давление - приведенное к уровню моря атмосферное давление.
Po - Атмосферное давление - измеренное на уровне метеостанции атмосферное давление.
Tmin - Минимальная температура - минимум температуры воздуха на высоте 2 м над землей.
Tmax - Максимальная температура - максимум температуры воздуха на высоте 2 м над землей.
R - Количество осадков - Количество выпавших осадков за период времени, мм. При наведении курсора мыши на число - период времени, за который выпало указанное количество осадков.
R24 - Количество осадков - Количество выпавших осадков за 24 часа, мм.
S - Снежный покров - Высота снежного покрова, см. При наведении курсора мыши на число - состояние снежного покрова и степень покрытия местности в баллах.